Find Jiaotong VDES A

NORAD ID: 66913 Int'l Des: 2025-284 Owner: XYUN Country: CN operational
LEOCIRCULARPOLAR

リアルタイム位置

3D地球を読み込み中...

Jiaotong VDES Aについて

説明を読み込み中...

次回通過

Passes for default location (London). Set your location on the main map for personalized predictions.

高度履歴

Loading altitude history...

軌道要素

1 66913U 25284A 26106.67442700 .00000110 00000-0 71973-4 0 9994
2 66913 80.4083 353.5398 0012048 45.9598 314.2553 13.97327499 18894
Epoch: Apr 16, 2026 • Age: 18 hours

現在のステータス

高度 937.4 km
速度 7.38 km/s
衛星直下点 -80.23°S, 114.95°W
打ち上げ日 Dec 5, 2025
運用期間 0.3 years
タイプ other

技術仕様

分類 Payload
質量 220.00 kg
乾燥質量 220.00 kg
総質量 220.00 kg
長さ 0.50 m
直径 0.20 m
スパン 2.00 m
形状 Box + 2 Pan
製造者 IMICAS
フェーズステータス In Orbit
所有者/国 XYUN/CN

Most Searched